Hourly Data Report for October 14, 2016

All times are specified in Local Standard Time (LST). Add 1 hour to adjust for Daylight Saving Time where and when it is observed.

OTTAWA INTL A
ONTARIO

45°19'00.000" N
75°40'00.000" W
114.90 m
6106001
71628
YOW

Download Data

Hourly Data (October 2016)
Hourly Data Report for October 14, 2016
Temp Definition
°C
Dew Point Temp Definition
°C
Rel Hum Definition
%
Wind Dir Definition
10's deg

Wind Spd Definition
km/h
Visibility Definition
km
Stn Press Definition
kPa
Hmdx Definition


Wind Chill Definition


Weather Definition


TIME
00:00 Legend Double Dagger 2.9 -0.4 79 30 5 24.1 101.21     LegendNANA
01:00 Legend Double Dagger 2.5 -0.1 83 27 5 24.1 101.28     Clear
02:00 Legend Double Dagger 0.8 -0.7 90 24 6 24.1 101.33     LegendNANA
03:00 Legend Double Dagger -2.4 -2.8 97 21 6 24.1 101.36   -5 LegendNANA
04:00 Legend Double Dagger -1.2 -1.5 98 23 8 24.1 101.41   -4 Clear
05:00 Legend Double Dagger -0.5 -0.8 98 24 7 24.1 101.47   -3 LegendNANA
06:00 Legend Double Dagger -4.0 -4.4 97 14 7 24.1 101.49   -7 LegendNANA
07:00 Legend Double Dagger -2.2 -2.5 98 24 9 24.1 101.57   -6 Mainly Clear
08:00 Legend Double Dagger 2.9 1.0 87 22 4 24.1 101.65     LegendNANA
09:00 Legend Double Dagger 5.1 0.9 74 23 5 24.1 101.68     LegendNANA
10:00 Legend Double Dagger 7.8 -0.9 54 24 12 24.1 101.68     Mostly Cloudy
11:00 Legend Double Dagger 8.9 -3.0 43 22 12 24.1 101.66     LegendNANA
12:00 Legend Double Dagger 10.5 -2.2 41 17 8 24.1 101.59     LegendNANA
13:00 Legend Double Dagger 11.6 -1.2 41 19 17 24.1 101.53     Mostly Cloudy
14:00 Legend Double Dagger 11.8 -1.7 39 20 9 24.1 101.47     LegendNANA
15:00 Legend Double Dagger 11.6 -1.5 40 36 3 24.1 101.42     LegendNANA
16:00 Legend Double Dagger 11.4 0.2 46 24 9 24.1 101.42     Mostly Cloudy
17:00 Legend Double Dagger 8.7 0.7 57 12 5 24.1 101.41     LegendNANA
18:00 Legend Double Dagger 9.3 0.8 55 17 10 24.1 101.39     LegendNANA
19:00 Legend Double Dagger 8.7 0.4 56 16 11 24.1 101.38     Cloudy
20:00 Legend Double Dagger 8.7 0.2 55 18 13 24.1 101.39     LegendNANA
21:00 Legend Double Dagger 6.9 0.4 63 20 10 24.1 101.39     LegendNANA
22:00 Legend Double Dagger 5.9 0.9 70 22 10 24.1 101.41     Mostly Cloudy
23:00 Legend Double Dagger 4.3 0.5 76 14 4 24.1 101.41     LegendNANA

Notes on Data Quality.

Legend

  • E = Estimated
  • M = Missing
  • NA = Not Available
  • ‡ = Partner data that is not subject to review by the National Climate Archives
Date modified: